KD4TJG Weather Reports


Display with metric or nautical units.
time (UTC)temp
F
wind
direction
speed
MPH
gust
MPH
rain 1hr
in
rain 24hr
in
rain mn
in
humidity
%
barometer
mb
20260906101549 70 0 0.0 2.0 0.00 0.01 0.00 88 1012.8
20260906101501 70 106 0.0 0.0 0.00 0.01 0.00 88 1014.8
20260906101024 70 0 0.0 2.0 0.00 0.01 0.00 88 1012.8
20260906100525 70 0 0.0 2.0 0.00 0.01 0.00 88 1012.5
20260906100448 70 161 0.0 1.0 0.00 0.01 0.00 88 1014.5
20260906100041 69 47 0.0 1.0 0.00 0.01 0.00 88 1012.4
20260906095525 69 0 0.0 1.0 0.00 0.01 0.00 88 1012.4
20260906095419 70 47 0.0 0.0 0.00 0.01 0.00 88 1014.5
20260906095023 69 0 0.0 1.0 0.00 0.01 0.00 88 1012.3
20260906094552 69 0 0.0 0.0 0.00 0.01 0.00 88 1012.4
20260906094417 69 139 0.0 0.0 0.00 0.01 0.00 88 1014.3
20260906094024 69 0 0.0 0.0 0.00 0.01 0.00 88 1012.3
20260906093525 69 0 0.0 0.0 0.00 0.01 0.00 88 1012.4
20260906093405 69 139 0.0 0.0 0.00 0.01 0.00 88 1014.4
20260906093052 69 0 0.0 1.0 0.00 0.01 0.00 88 1012.2
20260906092524 69 0 0.0 1.0 0.00 0.01 0.00 88 1012.3
20260906092358 69 139 0.0 0.0 0.00 0.01 0.00 88 1014.4
20260906092025 69 0 0.0 1.0 0.00 0.01 0.00 88 1012.4
20260906091546 68 0 0.0 1.0 0.00 0.01 0.00 88 1012.2
20260906091404 69 139 0.0 0.0 0.00 0.01 0.00 88 1014.2
20260906091024 68 0 0.0 1.0 0.00 0.01 0.00 88 1012.2
20260906090524 68 0 0.0 1.0 0.00 0.01 0.00 88 1012.2
20260906090405 68 139 0.0 0.0 0.00 0.01 0.00 88 1014.3
20260906090043 68 0 0.0 1.0 0.00 0.01 0.00 88 1012.1
20260906085525 68 139 0.0 1.0 0.00 0.01 0.00 88 1012.0
20260906085403 68 139 0.0 0.0 0.00 0.01 0.00 88 1014.0
20260906085025 68 139 0.0 1.0 0.00 0.01 0.00 88 1012.0
20260906084549 68 0 0.0 0.0 0.00 0.01 0.00 88 1011.9
20260906084401 68 139 0.0 0.0 0.00 0.01 0.00 88 1013.8
20260906084024 68 0 0.0 0.0 0.00 0.01 0.00 88 1012.0
20260906083529 68 0 0.0 1.0 0.00 0.01 0.00 88 1011.9
20260906083352 68 139 0.0 0.0 0.00 0.01 0.00 88 1013.8
20260906083049 67 0 0.0 1.0 0.00 0.01 0.00 88 1011.7
20260906082526 67 0 0.0 0.0 0.00 0.01 0.00 88 1011.6
20260906082401 68 139 0.0 0.0 0.00 0.01 0.00 88 1013.7
20260906082023 67 0 0.0 1.0 0.00 0.01 0.00 88 1011.7
20260906081551 68 0 0.0 1.0 0.00 0.01 0.00 88 1011.6
20260906081420 68 139 0.0 0.0 0.00 0.01 0.00 88 1013.6
20260906081026 68 0 0.0 1.0 0.00 0.01 0.00 88 1011.6
20260906080523 68 0 0.0 1.0 0.00 0.01 0.00 88 1011.6
20260906080349 68 139 0.0 0.0 0.00 0.01 0.00 88 1013.6
20260906080054 68 139 0.0 1.0 0.00 0.01 0.00 88 1011.6
20260906075524 67 0 0.0 1.0 0.00 0.01 0.00 88 1011.5
20260906075348 68 139 0.0 0.0 0.00 0.01 0.00 88 1013.6
20260906075024 67 0 0.0 1.0 0.00 0.01 0.00 88 1011.7
20260906074557 68 0 0.0 2.0 0.00 0.01 0.00 88 1011.7
20260906074353 68 139 0.0 0.0 0.00 0.01 0.00 88 1013.8
20260906074024 68 0 0.0 2.0 0.00 0.01 0.00 88 1011.7
20260906073525 68 139 0.0 2.0 0.00 0.01 0.00 88 1011.7
20260906073053 68 0 0.0 1.0 0.00 0.01 0.00 88 1011.6
20260906072525 68 0 0.0 1.0 0.00 0.01 0.00 88 1011.6
20260906072146 68 139 0.0 0.0 0.00 0.01 0.00 88 1013.7
20260906072025 68 0 0.0 0.0 0.00 0.01 0.00 88 1011.6
20260906071547 68 0 0.0 1.0 0.00 0.01 0.00 88 1011.7
20260906071023 68 0 0.0 1.0 0.00 0.01 0.00 88 1011.7
20260906070525 68 0 0.0 0.0 0.00 0.01 0.00 88 1011.8
20260906070040 68 0 0.0 1.0 0.00 0.01 0.00 88 1011.9
20260906070004 68 139 0.0 0.0 0.00 0.01 0.00 88 1013.9
20260906065525 68 0 0.0 1.0 0.00 0.04 0.00 88 1011.9
20260906065027 69 139 0.0 0.0 0.00 0.01 0.00 88 1014.0
20260906065025 68 0 0.0 0.0 0.00 0.04 0.00 88 1011.9
20260906064551 68 0 0.0 0.0 0.00 0.04 0.00 88 1012.0
20260906064024 68 0 0.0 1.0 0.00 0.04 0.00 88 1012.0
20260906063525 68 0 0.0 1.0 0.00 0.04 0.00 88 1012.1
20260906063041 69 0 0.0 1.0 0.00 0.04 0.00 88 1012.0
20260906062523 69 0 0.0 0.0 0.00 0.04 0.00 88 1012.0
20260906062027 69 0 0.0 1.0 0.00 0.04 0.00 88 1012.0
20260906061753 69 139 0.0 0.0 0.00 0.04 0.00 88 1014.0
20260906061556 69 0 0.0 1.0 0.00 0.04 0.00 88 1012.0
20260906061024 69 0 0.0 1.0 0.00 0.04 0.00 88 1012.0
20260906060751 69 139 0.0 0.0 0.00 0.04 0.00 88 1014.0
20260906060524 69 0 0.0 1.0 0.00 0.04 0.00 88 1012.0
20260906060047 68 0 0.0 1.0 0.00 0.04 0.00 88 1011.9
20260906055746 69 139 0.0 0.0 0.00 0.04 0.00 88 1013.9
20260906055523 69 139 0.0 1.0 0.00 0.04 0.00 88 1011.9
20260906055024 69 0 0.0 1.0 0.00 0.04 0.00 88 1012.0
20260906054739 70 139 0.0 0.0 0.00 0.04 0.00 88 1014.0
20260906054547 69 0 0.0 1.0 0.00 0.04 0.00 88 1012.0
20260906054022 69 0 0.0 1.0 0.00 0.04 0.00 88 1012.0
20260906053752 70 133 0.0 0.0 0.00 0.04 0.00 88 1014.1
20260906053523 69 0 0.0 0.0 0.00 0.04 0.00 88 1012.0
20260906053041 69 0 0.0 2.0 0.00 0.04 0.00 88 1011.9
20260906052754 70 90 0.0 1.0 0.00 0.04 0.00 88 1014.0
20260906052524 69 0 0.0 2.0 0.00 0.04 0.00 88 1011.9
20260906052025 69 90 0.0 2.0 0.00 0.04 0.00 88 1012.1
20260906051600 70 0 0.0 2.0 0.00 0.04 0.00 88 1012.2
20260906051024 69 0 0.0 2.0 0.00 0.04 0.00 88 1012.2
20260906050524 70 193 0.0 2.0 0.00 0.04 0.00 88 1012.2
20260906050053 70 0 0.0 2.0 0.00 0.04 0.00 88 1012.2
20260906045523 70 260 0.0 2.0 0.00 0.04 0.00 88 1012.3
20260906045416 71 260 0.0 0.0 0.00 0.04 0.00 88 1014.3
20260906045026 70 0 0.0 2.0 0.00 0.04 0.00 88 1012.3
20260906044544 70 260 0.0 2.0 0.00 0.04 0.00 88 1012.2
20260906044407 70 260 0.0 0.0 0.00 0.04 0.00 88 1014.3
20260906044023 70 0 0.0 2.0 0.00 0.04 0.00 88 1012.2
20260906043528 70 0 0.0 2.0 0.00 0.04 0.00 88 1012.4
20260906043353 71 260 0.0 0.0 0.00 0.04 0.00 88 1014.4
20260906043049 70 260 0.0 2.0 0.00 0.04 0.00 88 1012.5
20260906042523 70 0 0.0 1.0 0.00 0.04 0.00 88 1012.4
20260906042024 70 0 0.0 2.0 0.00 0.04 0.00 88 1012.4
20260906041550 70 0 0.0 2.0 0.00 0.04 0.00 88 1012.5
20260906041251 71 260 0.0 1.0 0.00 0.04 0.00 87 1014.4
20260906041024 70 0 0.0 1.0 0.00 0.04 0.00 87 1012.4
20260906040524 70 0 0.0 1.0 0.00 0.04 0.00 87 1012.4
20260906040241 71 260 0.0 0.0 0.00 0.04 0.00 87 1014.6
20260906040047 70 260 0.0 3.0 0.00 0.04 0.00 87 1012.5
20260906035523 70 0 0.0 3.0 0.00 0.04 0.04 87 1012.6
20260906035238 71 260 0.0 1.0 0.00 0.04 0.04 87 1014.5
20260906035023 70 267 0.0 2.0 0.00 0.04 0.04 87 1012.6
20260906034554 71 0 0.0 2.0 0.00 0.04 0.04 87 1012.6
20260906034234 72 12 0.0 1.0 0.00 0.04 0.04 87 1014.6
20260906034025 71 291 1.0 2.0 0.00 0.04 0.04 87 1012.5
20260906033523 71 0 0.0 3.0 0.00 0.04 0.04 87 1012.7
20260906033211 71 296 0.0 0.0 0.00 0.04 0.04 87 1014.5
20260906033053 71 258 0.0 3.0 0.00 0.04 0.04 87 1012.5
20260906032523 71 19 1.0 3.0 0.00 0.04 0.04 87 1012.6
20260906032024 71 0 0.0 2.0 0.00 0.04 0.04 87 1012.4
20260906031555 71 0 0.0 2.0 0.00 0.04 0.04 87 1012.3
20260906031024 71 168 0.0 1.0 0.00 0.04 0.04 87 1014.4
20260906030525 71 0 0.0 2.0 0.00 0.04 0.04 87 1012.4
20260906030050 71 168 1.0 2.0 0.00 0.04 0.04 87 1012.3
20260906030029 71 168 0.0 1.0 0.00 0.04 0.04 87 1014.3
20260906025524 71 0 0.0 1.0 0.00 0.05 0.04 87 1012.3
20260906025027 71 0 0.0 1.0 0.00 0.05 0.04 87 1012.3
20260906025018 71 168 0.0 0.0 0.00 0.05 0.04 87 1014.3
20260906024548 71 0 0.0 1.0 0.00 0.05 0.04 87 1012.3
20260906024026 71 0 0.0 0.0 0.00 0.05 0.04 87 1012.3
20260906024016 71 168 0.0 0.0 0.00 0.05 0.04 87 1014.3
20260906023524 71 0 0.0 1.0 0.00 0.05 0.04 87 1012.3
20260906023044 71 0 0.0 1.0 0.00 0.05 0.04 87 1012.2
20260906023006 71 168 0.0 0.0 0.00 0.05 0.04 87 1014.2
20260906022527 71 168 0.0 1.0 0.00 0.05 0.04 87 1012.2
20260906022024 71 0 0.0 1.0 0.00 0.05 0.04 87 1012.2
20260906022003 72 168 0.0 0.0 0.00 0.05 0.04 87 1014.2
20260906021554 71 0 0.0 0.0 0.00 0.05 0.04 87 1012.2
20260906021028 72 168 0.0 0.0 0.00 0.05 0.04 87 1014.1
20260906021021 71 0 0.0 1.0 0.00 0.05 0.04 87 1012.1
20260906020526 71 0 0.0 1.0 0.00 0.05 0.04 87 1012.1
20260906020057 72 0 0.0 1.0 0.00 0.05 0.04 87 1012.2
20260906020032 72 168 0.0 0.0 0.00 0.05 0.04 87 1014.3
20260906015538 72 0 0.0 1.0 0.00 0.05 0.04 87 1012.2
20260906015024 72 0 0.0 0.0 0.00 0.05 0.04 87 1012.3
20260906014550 72 0 0.0 0.0 0.00 0.05 0.04 87 1012.2
20260906014024 72 0 0.0 0.0 0.00 0.05 0.04 87 1012.2
20260906013523 72 0 0.0 0.0 0.00 0.05 0.04 87 1012.1
20260906013042 72 0 0.0 0.0 0.00 0.05 0.04 87 1012.1
20260906012737 73 168 0.0 0.0 0.00 0.05 0.04 87 1014.1
20260906012526 72 0 0.0 0.0 0.00 0.05 0.04 87 1011.9
20260906012025 72 0 0.0 0.0 0.00 0.05 0.04 87 1011.9
20260906011705 73 168 0.0 0.0 0.00 0.05 0.04 87 1013.9
20260906011550 73 0 0.0 0.0 0.00 0.05 0.04 87 1011.8
20260906011024 73 0 0.0 0.0 0.00 0.05 0.04 87 1011.8
20260906010525 73 0 0.0 0.0 0.00 0.05 0.04 87 1011.8
20260906010053 73 0 0.0 0.0 0.00 0.05 0.04 86 1011.8
20260906005526 73 0 0.0 0.0 0.00 0.05 0.04 86 1011.8
20260906005510 74 168 0.0 0.0 0.00 0.05 0.04 86 1013.8
20260906005027 73 0 0.0 0.0 0.00 0.05 0.04 86 1011.8
20260906004544 73 0 0.0 1.0 0.00 0.05 0.04 86 1011.8
20260906004532 74 168 0.0 0.0 0.00 0.05 0.04 86 1013.8
20260906004027 74 0 0.0 1.0 0.00 0.05 0.04 86 1011.6
20260906003524 74 0 0.0 2.0 0.00 0.05 0.04 85 1011.6
20260906003512 74 168 0.0 0.0 0.00 0.05 0.04 85 1013.5
20260906003043 74 0 0.0 2.0 0.00 0.05 0.04 85 1011.5
20260906002524 74 168 0.0 2.0 0.00 0.05 0.04 85 1011.5
20260906002026 75 168 0.0 2.0 0.00 0.05 0.04 85 1011.5
20260906001548 75 168 1.0 2.0 0.00 0.05 0.04 84 1011.4
20260906001433 75 168 0.0 1.0 0.00 0.05 0.04 84 1013.5
20260906001025 75 168 0.0 2.0 0.00 0.05 0.04 84 1011.4
20260906000525 76 258 0.0 1.0 0.00 0.05 0.04 84 1011.3
20260906000426 76 258 0.0 0.0 0.00 0.05 0.04 84 1013.4
20260906000050 76 0 0.0 1.0 0.00 0.05 0.04 83 1011.2
20260905235524 76 258 0.0 1.0 0.00 0.20 0.04 83 1011.2
20260905235357 77 258 0.0 0.0 0.00 0.13 0.04 82 1013.2
20260905235025 77 258 0.0 1.0 0.00 0.20 0.04 81 1011.1
20260905234548 77 0 0.0 1.0 0.00 0.20 0.04 81 1011.0
20260905234348 78 258 0.0 0.0 0.00 0.20 0.04 81 1013.0
20260905234024 77 258 0.0 1.0 0.00 0.20 0.04 80 1011.0
20260905233526 78 0 0.0 1.0 0.00 0.20 0.04 78 1011.0
20260905233359 79 258 0.0 0.0 0.00 0.20 0.04 78 1013.0
20260905233044 79 0 0.0 1.0 0.00 0.20 0.04 77 1011.0
20260905232525 79 0 0.0 1.0 0.00 0.20 0.04 76 1011.0
20260905232338 80 229 0.0 0.0 0.00 0.20 0.04 76 1013.0
20260905232024 80 0 0.0 3.0 0.00 0.20 0.04 75 1010.9
20260905231547 80 229 1.0 3.0 0.00 0.20 0.04 73 1010.9
20260905231024 81 223 0.0 3.0 0.00 0.20 0.04 73 1011.0
20260905230525 81 229 0.0 5.0 0.00 0.20 0.04 70 1010.9
20260905230230 82 203 1.0 3.0 0.00 0.20 0.04 70 1012.8
20260905230049 81 0 1.0 5.0 0.00 0.20 0.04 70 1010.8
20260905225522 82 195 1.0 4.0 0.00 0.20 0.04 71 1010.9
20260905225226 82 191 0.0 3.0 0.00 0.20 0.04 70 1013.0
20260905225023 82 183 0.0 4.0 0.00 0.20 0.04 71 1010.9
20260905224558 82 224 1.0 4.0 0.00 0.20 0.04 71 1011.0
20260905224025 82 0 1.0 3.0 0.00 0.20 0.04 71 1011.0
20260905223525 82 173 2.0 5.0 0.00 0.20 0.04 71 1011.0
20260905223048 82 205 1.0 6.0 0.00 0.20 0.04 71 1011.0
20260905222525 82 158 2.0 6.0 0.00 0.20 0.04 70 1011.0
20260905222024 82 201 2.0 6.0 0.00 0.20 0.04 71 1011.0
20260905221556 82 200 2.0 7.0 0.00 0.20 0.04 71 1011.2
20260905221028 81 189 3.0 7.0 0.00 0.20 0.04 71 1011.3
20260905220521 81 184 2.0 6.0 0.00 0.20 0.04 72 1011.3
20260905220104 81 247 3.0 7.0 0.00 0.20 0.04 73 1011.4
20260905215846 81 222 3.0 8.0 0.00 0.20 0.04 72 1013.4
20260905215525 81 221 3.0 10.0 0.00 0.20 0.04 72 1011.3
20260905215024 81 211 3.0 10.0 0.00 0.20 0.04 72 1011.4
20260905214832 82 208 3.0 8.0 0.00 0.20 0.04 72 1013.5
20260905214547 82 139 4.0 10.0 0.00 0.20 0.04 71 1011.4
20260905214024 82 242 4.0 10.0 0.00 0.20 0.04 72 1011.5
20260905213802 82 215 4.0 8.0 0.00 0.20 0.04 72 1013.6
20260905213525 82 194 5.0 10.0 0.00 0.20 0.04 71 1011.5
20260905213046 83 172 4.0 9.0 0.00 0.20 0.04 69 1011.5
20260905212527 84 187 2.0 5.0 0.00 0.20 0.04 69 1011.4
20260905212023 84 195 1.0 3.0 0.00 0.20 0.04 69 1011.4
20260905211638 84 174 1.0 5.0 0.00 0.20 0.04 69 1013.5
20260905211617 83 174 1.0 7.0 0.00 0.20 0.04 69 1011.4
20260905211024 84 177 0.0 8.0 0.00 0.20 0.04 68 1011.5
20260905210654 85 299 3.0 6.0 0.00 0.20 0.04 66 1013.6
20260905210525 84 246 3.0 8.0 0.00 0.20 0.04 65 1011.5
20260905210054 85 281 4.0 8.0 0.00 0.20 0.04 64 1011.5
20260905205524 86 142 3.0 8.0 0.00 0.20 0.04 66 1011.4
20260905205025 85 197 3.0 7.0 0.00 0.20 0.04 68 1011.3
20260905204555 85 176 3.0 7.0 0.00 0.20 0.04 67 1011.2
20260905204439 85 181 2.0 6.0 0.00 0.20 0.04 67 1013.1
20260905204024 84 221 3.0 6.0 0.00 0.20 0.04 69 1011.0
20260905203523 84 182 2.0 6.0 0.00 0.20 0.04 69 1011.0
20260905203501 84 224 1.0 4.0 0.00 0.20 0.04 71 1013.1
20260905203103 82 255 0.0 5.0 0.00 0.20 0.04 73 1011.1
20260905202519 81 263 1.0 5.0 0.00 0.20 0.04 75 1011.1
20260905202437 82 220 1.0 4.0 0.00 0.20 0.04 76 1013.2
20260905202025 81 260 2.0 6.0 0.00 0.20 0.04 78 1011.2
20260905201545 80 208 3.0 6.0 0.00 0.20 0.04 78 1011.2
20260905201435 80 247 1.0 4.0 0.00 0.20 0.04 78 1013.3
20260905201024 79 223 1.0 5.0 0.00 0.20 0.04 80 1011.2
20260905200528 79 39 2.0 8.0 0.00 0.20 0.04 81 1011.3
20260905200438 79 211 2.0 8.0 0.00 0.20 0.04 81 1013.4
20260905200053 79 275 1.0 9.0 0.00 0.20 0.04 81 1011.3
20260905195524 78 181 3.0 9.0 0.00 0.20 0.04 82 1011.2
20260905195422 79 162 3.0 8.0 0.00 0.20 0.04 82 1013.3
20260905195027 78 197 3.0 8.0 0.00 0.20 0.04 83 1011.5
20260905194549 78 167 3.0 7.0 0.00 0.20 0.04 83 1011.6
20260905194430 78 210 2.0 5.0 0.00 0.20 0.04 83 1013.7
20260905194028 78 185 1.0 6.0 0.00 0.20 0.04 83 1012.0
20260905193525 77 206 2.0 7.0 0.00 0.20 0.04 83 1011.8
20260905193433 78 168 2.0 6.0 0.00 0.20 0.04 83 1013.9
20260905193043 78 249 2.0 7.0 0.00 0.20 0.04 83 1012.0
20260905192524 78 197 4.0 7.0 0.00 0.20 0.04 83 1011.8
20260905192419 79 216 1.0 6.0 0.00 0.20 0.04 83 1013.8
20260905192024 78 205 2.0 3.0 0.00 0.20 0.04 82 1011.5
20260905191548 79 0 0.0 3.0 0.01 0.20 0.04 81 1011.0
20260905191423 79 269 1.0 2.0 0.00 0.20 0.04 81 1013.0
20260905191026 79 231 1.0 4.0 0.01 0.20 0.04 79 1010.8
20260905190525 79 0 1.0 5.0 0.01 0.20 0.04 78 1010.6
20260905190415 80 120 2.0 4.0 0.00 0.20 0.04 78 1012.6
20260905190048 80 147 3.0 5.0 0.01 0.20 0.04 78 1010.6
20260905185525 80 108 3.0 5.0 0.01 0.20 0.04 78 1011.1
20260905185024 79 85 1.0 3.0 0.01 0.20 0.04 79 1011.4
20260905184549 79 0 0.0 4.0 0.01 0.20 0.04 80 1011.4
20260905184225 80 265 1.0 3.0 0.00 0.20 0.04 79 1013.4
20260905184023 79 265 1.0 4.0 0.01 0.20 0.04 79 1011.4
20260905183526 79 341 2.0 4.0 0.01 0.20 0.04 79 1011.7
20260905183155 80 10 1.0 17.0 0.01 0.20 0.04 78 1013.5
20260905183057 80 34 1.0 6.0 0.01 0.20 0.04 77 1011.5
20260905182525 82 0 2.0 12.0 0.01 0.20 0.04 74 1011.8
20260905182155 84 262 5.0 17.0 0.01 0.20 0.04 70 1013.8
20260905182026 85 276 4.0 23.0 0.01 0.20 0.04 69 1011.8
20260905181604 89 337 9.0 23.0 0.00 0.19 0.03 60 1011.8
20260905181206 91 233 3.0 16.0 0.00 0.19 0.03 60 1013.8
20260905181024 90 266 5.0 13.0 0.00 0.19 0.03 60 1011.6
20260905180526 91 0 1.0 8.0 0.00 0.19 0.03 59 1011.5
20260905180145 92 226 3.0 12.0 0.00 0.19 0.03 59 1013.5
20260905180042 91 307 2.0 13.0 0.00 0.19 0.03 58 1011.4
20260905175525 92 18 2.0 16.0 0.00 0.19 0.03 58 1011.7
20260905175111 94 273 3.0 12.0 0.00 0.19 0.03 56 1013.8
20260905175023 93 262 6.0 16.0 0.00 0.19 0.03 55 1011.8
20260905174555 94 228 3.0 12.0 0.00 0.19 0.03 55 1011.5
20260905174027 94 266 5.0 12.0 0.00 0.19 0.03 55 1011.5
20260905173524 94 224 3.0 11.0 0.00 0.19 0.03 56 1011.7
20260905173049 93 263 3.0 8.0 0.00 0.19 0.03 55 1011.8
20260905173002 94 274 1.0 7.0 0.00 0.19 0.03 55 1013.8
20260905172524 94 254 0.0 9.0 0.00 0.19 0.03 58 1012.0
20260905172025 94 4 1.0 12.0 0.00 0.19 0.03 60 1012.1
20260905171934 94 182 4.0 11.0 0.00 0.19 0.03 58 1014.1
20260905171546 93 226 3.0 13.0 0.00 0.19 0.03 56 1012.3
20260905171028 93 246 5.0 13.0 0.00 0.19 0.03 59 1012.4
20260905170941 93 228 1.0 11.0 0.00 0.19 0.03 58 1014.4
20260905170524 93 11 2.0 8.0 0.00 0.19 0.03 57 1012.6
20260905170055 92 12 1.0 7.0 0.00 0.19 0.03 57 1012.5
20260905165918 93 43 1.0 4.0 0.00 0.19 0.03 57 1014.6
20260905165526 93 0 2.0 7.0 0.00 0.19 0.03 58 1012.7
20260905165024 92 260 1.0 7.0 0.00 0.19 0.03 61 1012.8
20260905164918 93 307 1.0 4.0 0.00 0.19 0.03 60 1014.7
20260905164548 92 202 1.0 8.0 0.00 0.19 0.03 58 1012.9
20260905164024 93 17 1.0 9.0 0.00 0.19 0.03 57 1012.9
20260905163524 93 287 3.0 10.0 0.00 0.19 0.03 56 1012.9
20260905163049 92 249 3.0 10.0 0.00 0.19 0.03 59 1012.8
20260905162727 93 342 2.0 9.0 0.00 0.19 0.03 60 1014.9
20260905162526 92 172 2.0 7.0 0.00 0.19 0.03 58 1012.9
20260905162023 93 249 2.0 7.0 0.00 0.19 0.03 58 1013.0
20260905161724 93 301 1.0 5.0 0.00 0.19 0.03 58 1015.0
20260905161541 93 184 2.0 6.0 0.00 0.19 0.03 63 1012.9
20260905161023 91 308 1.0 7.0 0.00 0.19 0.03 60 1013.0
20260905160735 92 352 1.0 5.0 0.00 0.19 0.03 61 1015.0
20260905160524 92 244 2.0 7.0 0.00 0.19 0.03 61 1013.1
20260905160118 91 146 2.0 7.0 0.00 0.19 0.03 59 1013.0
20260905155742 92 238 2.0 8.0 0.00 0.19 0.03 62 1015.2
20260905155525 91 257 1.0 10.0 0.00 0.19 0.03 60 1013.1
20260905155024 91 261 4.0 10.0 0.00 0.19 0.03 61 1013.1
20260905154549 91 326 4.0 9.0 0.00 0.19 0.03 61 1013.1
20260905154025 91 237 4.0 10.0 0.00 0.19 0.03 62 1013.2
20260905153641 91 254 2.0 9.0 0.00 0.19 0.03 61 1015.2
20260905153525 90 226 1.0 10.0 0.00 0.19 0.03 62 1013.2
20260905153047 90 245 2.0 10.0 0.00 0.19 0.03 63 1013.3
20260905152620 90 204 3.0 6.0 0.00 0.19 0.03 64 1015.2
20260905152524 90 347 3.0 8.0 0.00 0.19 0.03 63 1013.2
20260905152024 90 278 4.0 8.0 0.00 0.19 0.03 63 1013.3
20260905151623 90 191 1.0 5.0 0.00 0.19 0.03 65 1015.2
20260905151603 89 246 3.0 6.0 0.00 0.19 0.03 66 1013.3
20260905151021 89 15 1.0 7.0 0.00 0.19 0.03 68 1013.3
20260905150524 89 195 2.0 7.0 0.00 0.19 0.03 67 1013.4
20260905150052 88 254 2.0 6.0 0.00 0.19 0.03 70 1013.4
20260905145530 88 3 3.0 7.0 0.00 0.19 0.03 69 1015.5
20260905145526 88 0 1.0 7.0 0.00 0.19 0.03 69 1013.5
20260905145029 87 220 4.0 7.0 0.00 0.19 0.03 70 1013.6
20260905144549 87 175 3.0 9.0 0.00 0.19 0.03 71 1013.7
20260905144544 87 188 3.0 7.0 0.00 0.19 0.03 71 1015.7
20260905144027 86 227 5.0 9.0 0.00 0.19 0.03 72 1013.6
20260905143559 87 213 1.0 6.0 0.00 0.19 0.03 73 1015.6
20260905143524 86 186 2.0 7.0 0.00 0.19 0.03 73 1013.6
20260905143048 86 189 2.0 7.0 0.00 0.19 0.03 73 1013.6
20260905142602 86 191 2.0 6.0 0.00 0.19 0.03 74 1015.6
20260905142523 86 170 4.0 7.0 0.00 0.19 0.03 75 1013.6
20260905142023 85 159 2.0 7.0 0.00 0.19 0.03 76 1013.5
20260905141625 86 183 1.0 5.0 0.00 0.19 0.03 73 1015.5
20260905141543 85 195 2.0 6.0 0.00 0.19 0.03 73 1013.4
20260905141024 85 230 1.0 5.0 0.00 0.19 0.03 75 1013.5
20260905140550 85 241 1.0 3.0 0.00 0.19 0.03 77 1015.5
20260905140527 84 198 2.0 4.0 0.00 0.19 0.03 77 1013.4
20260905140050 84 193 2.0 4.0 0.00 0.19 0.03 78 1013.5
20260905135613 84 212 1.0 2.0 0.00 0.19 0.03 79 1015.5
20260905135526 83 185 1.0 4.0 0.00 0.19 0.03 79 1013.4
20260905135025 83 135 1.0 4.0 0.00 0.19 0.03 80 1013.4
20260905134549 82 0 2.0 4.0 0.00 0.19 0.03 80 1013.4
20260905134546 82 235 1.0 5.0 0.00 0.19 0.03 80 1015.5
20260905134026 81 183 1.0 4.0 0.00 0.19 0.03 82 1013.4
20260905133542 81 201 1.0 5.0 0.00 0.19 0.03 82 1015.5
20260905133523 81 201 1.0 6.0 0.00 0.19 0.03 82 1013.4
20260905133042 80 172 2.0 6.0 0.00 0.19 0.03 83 1013.4
20260905132529 80 176 2.0 6.0 0.00 0.19 0.03 85 1013.3
20260905132527 80 172 1.0 5.0 0.00 0.19 0.03 85 1015.3
20260905132025 79 178 1.0 6.0 0.00 0.19 0.03 86 1013.3
20260905131548 78 145 1.0 5.0 0.00 0.19 0.03 87 1013.4
20260905131534 79 156 1.0 4.0 0.00 0.19 0.03 87 1015.5
20260905131024 78 174 2.0 4.0 0.00 0.19 0.03 87 1013.4
20260905130528 78 167 1.0 5.0 0.00 0.19 0.03 87 1015.5
20260905130526 77 167 1.0 6.0 0.00 0.19 0.03 87 1013.5
20260905130046 76 192 2.0 6.0 0.00 0.19 0.03 88 1013.6
20260905125524 76 202 3.0 6.0 0.00 0.19 0.03 88 1013.5
20260905125509 76 184 2.0 5.0 0.00 0.19 0.03 88 1015.6
20260905125023 75 181 2.0 4.0 0.00 0.19 0.03 88 1013.6
20260905124556 75 266 2.0 6.0 0.00 0.19 0.03 88 1013.6
20260905124450 75 226 1.0 3.0 0.00 0.19 0.03 88 1015.6
20260905124025 74 208 2.0 6.0 0.00 0.19 0.03 88 1013.6
20260905123525 74 190 0.0 3.0 0.00 0.19 0.03 88 1013.7
20260905123513 74 187 1.0 2.0 0.00 0.19 0.03 88 1015.7
20260905123051 73 168 1.0 3.0 0.00 0.19 0.03 88 1013.7
20260905122525 72 163 1.0 4.0 0.00 0.19 0.03 88 1013.6
20260905122503 73 163 1.0 2.0 0.00 0.19 0.03 88 1015.7
20260905122025 72 183 0.0 4.0 0.00 0.19 0.03 88 1013.7
20260905121546 72 146 1.0 4.0 0.00 0.19 0.03 88 1013.7
20260905121434 72 159 0.0 1.0 0.00 0.19 0.03 89 1015.7
20260905121024 72 0 1.0 2.0 0.00 0.19 0.03 89 1013.6
20260905120525 71 190 0.0 2.0 0.00 0.19 0.03 88 1013.6
20260905120042 71 0 0.0 1.0 0.00 0.19 0.03 89 1013.6
20260905115525 71 0 0.0 1.0 0.00 0.19 0.03 88 1013.5
20260905115236 71 190 0.0 0.0 0.00 0.19 0.03 89 1015.5
20260905115027 70 0 0.0 1.0 0.00 0.19 0.03 89 1013.4
20260905114553 70 0 0.0 2.0 0.00 0.19 0.03 89 1013.5
20260905114226 71 190 0.0 1.0 0.00 0.19 0.03 89 1015.4
20260905114024 70 0 0.0 3.0 0.00 0.19 0.03 89 1013.3
20260905113525 69 190 1.0 3.0 0.00 0.19 0.03 89 1013.1
20260905113052 69 0 0.0 0.0 0.00 0.19 0.03 89 1013.1
20260905112527 69 0 0.0 0.0 0.00 0.19 0.03 89 1013.1
20260905112125 69 273 0.0 0.0 0.00 0.19 0.03 89 1015.0
20260905112025 69 0 0.0 0.0 0.00 0.19 0.03 89 1013.1
20260905111601 69 0 0.0 0.0 0.00 0.19 0.03 89 1013.0
20260905111103 69 273 0.0 0.0 0.00 0.19 0.03 89 1015.0
20260905111025 69 0 0.0 0.0 0.00 0.19 0.03 89 1013.0
20260905110527 69 0 0.0 0.0 0.00 0.19 0.03 89 1013.0
20260905110058 68 0 0.0 0.0 0.00 0.19 0.03 88 1013.0
20260905105525 69 0 0.0 0.0 0.00 0.19 0.03 89 1013.0
20260905105023 69 0 0.0 0.0 0.00 0.19 0.03 88 1012.9
20260905104921 69 273 0.0 0.0 0.00 0.19 0.03 88 1014.9
20260905104550 69 0 0.0 0.0 0.00 0.19 0.03 88 1012.8
20260905104024 69 0 0.0 0.0 0.00 0.19 0.03 88 1012.8
20260905103847 70 273 0.0 0.0 0.00 0.19 0.03 88 1014.8
20260905103524 69 0 0.0 0.0 0.00 0.19 0.03 88 1012.8
20260905103053 69 0 0.0 0.0 0.00 0.19 0.03 89 1012.7
20260905102526 69 0 0.0 0.0 0.00 0.19 0.03 88 1012.7
20260905102024 69 0 0.0 0.0 0.00 0.19 0.03 88 1012.8
20260905101722 70 273 0.0 0.0 0.00 0.19 0.03 88 1014.7